Regional Weather Roundup
Issued by NWS

Home | Current Version | Previous Version | Graphics & Text | Print | Product List | Glossary On
Versions: 1 2 3 4 5 6 7 8 9 10 11 12 13 14 15 16 17 18 19 20 21 22 23 24 25 26 27 28 29 30 31 32 33 34 35 36 37 38 39 40 41 42 43 44 45 46 47 48 49 50
000
ASUS43 KDTX 152001
RWRMI
MICHIGAN HOURLY REGIONAL WEATHER ROUNDUP
NATIONAL WEATHER SERVICE DETROIT/PONTIAC MI
400 PM EDT MON SEP 15 2014

NOTE: "FAIR" INDICATES FEW OR NO CLOUDS BELOW 12,000 FEET WITH NO
SIGNIFICANT WEATHER AND/OR OBSTRUCTION TO VISIBILITY.

MIZ047>049-052>055-059>063-066>070-074>076-081>083-152100-
SOUTHEAST LOWER MICHIGAN

CITY           SKY/WX    TMP DP  RH WIND       PRES   REMARKS
ADRIAN         CLOUDY    59  52  77 SW5       30.11F
ALMA           CLOUDY    60  53  77 CALM      30.08F
ANN ARBOR      CLOUDY    59  49  69 SW5       30.11F
BAD AXE        DRIZZLE   58  53  81 W7        30.09F
CARO           CLOUDY    56  51  82 CALM      30.08F
DETROIT CITY   CLOUDY    62  47  57 W9        30.11F
DETROIT        CLOUDY    58  50  75 S8        30.12F
FLINT          CLOUDY    63  49  60 SW3       30.08F
GROSSE ILE     CLOUDY    61  52  72 W3        30.11F
HILLSDALE      CLOUDY    60  50  69 SW5       30.10F
HOWELL         CLOUDY    61  48  62 S7        30.08F

CITY           SKY/WX    TMP DP  RH WIND       PRES   REMARKS
JACKSON        CLOUDY    61  49  64 SW9       30.09F
LAMBERTVILLE   CLOUDY    61  52  72 CALM      30.13S
LANSING        CLOUDY    63  48  58 SW10      30.08F
LAPEER         CLOUDY    61  47  60 W6        30.10F
MASON          CLOUDY    61  49  65 SW6       30.08F
MONROE         CLOUDY    61  52  72 W5        30.10S
MT. CLEMENS    CLOUDY    61  48  61 W6        30.09F
PONTIAC        CLOUDY    60  47  61 SW7       30.09F
PORT HOPE        N/A     58  52  80 W5        30.08S
PORT HURON     CLOUDY    59  52  77 SW3       30.11S
TRI CITIES     CLOUDY    59  52  77 W3        30.10F
TROY           CLOUDY    62  48  60 SW6       30.12F
SAGINAW HB     CLOUDY    59  52  77 CALM      30.08F
$$
MIZ043>046-050>051-056>058-064>065-071>073-077>080-152100-
SOUTHWEST LOWER MICHIGAN

CITY           SKY/WX    TMP DP  RH WIND       PRES   REMARKS
BATTLE CREEK   CLOUDY    62  48  60 SW10      30.09F
BENTON HARBOR  CLOUDY    61  50  67 SW14      30.08F
BIG RAPIDS     LGT RAIN  55  54  95 CALM      30.09S
COLDWATER      CLOUDY    61  51  69 SW5       30.09F
FREMONT        DRIZZLE   55  53  93 CALM      30.09S
HOLLAND        CLOUDY    60  55  83 CALM      30.08F
GRAND RAPIDS   CLOUDY    61  51  70 W9        30.08F
IONIA          CLOUDY    62  49  62 W7        30.07S
KALAMAZOO      CLOUDY    62  49  62 SW9       30.09F
LUDINGTON      LGT RAIN  55  51  89 NW5       30.11S
MARSHALL       CLOUDY    61  48  64 SW8       30.08F
MOUNT PLEASANT DRIZZLE   56  54  92 NW3       30.09F
MUSKEGON       LGT RAIN  58  54  86 NE8       30.09F FOG
SOUTH HAVEN    CLOUDY    62  53  73 SW6       30.07F
$$
MIZ016>042-152100-
NORTHERN LOWER MICHIGAN

CITY           SKY/WX    TMP DP  RH WIND       PRES   REMARKS
ALPENA         CLOUDY    59  44  57 W7        30.06F
BEAVER ISLAND  PTSUNNY   61  46  58 SW9       30.08S
BELLAIRE       PTSUNNY   59  42  54 NW3       30.09S
CADILLAC       LGT RAIN  52  51  95 NW5       30.09S
CHARLEVOIX     PTSUNNY   59  46  61 NW8       30.12S
FRANKFORT      CLOUDY    59  49  70 NW6       30.10S
GAYLORD        PTSUNNY   56  41  57 W7        30.07F
GRAYLING       CLOUDY    57  52  82 SW5       30.10S
HARBOR SPRINGS PTSUNNY   62  45  53 W8        30.07F
HOUGHTON LAKE  LGT RAIN  54  47  77 NW5       30.10S
MANISTEE       CLOUDY    54  48  82 NW6       30.11S
OSCODA         LGT RAIN  56  54  93 W3        30.08S
PELLSTON       MOSUNNY   61  41  47 NW9       30.07F
TRAVERSE CITY  CLOUDY    59  49  69 CALM      30.08S
$$
MIZ007>008-015-152100-
EASTERN UPPER MICHIGAN

CITY           SKY/WX    TMP DP  RH WIND       PRES   REMARKS
KINROSS        MOSUNNY   59  46  63 NW12G18   30.05F
MACKINAC ISLAN MOSUNNY   59  47  64 SW8       30.05F
NEWBERRY       CLOUDY    58  44  57 NW8       30.06S
S. S. MARIE    SUNNY     58  41  53 NW12G18   30.06F
$$
MIZ004>006-011>014-085-152100-
CENTRAL UPPER MICHIGAN

CITY           SKY/WX    TMP DP  RH WIND       PRES   REMARKS
MANISTIQUE     CLOUDY    60  48  64 SW6       30.07R
ESCANABA       PTSUNNY   61  45  55 SE8       30.07F
MENOMINEE      CLOUDY    61  43  51 W7        30.08S
SAWYER-GWINN   MOSUNNY   55  46  71 NE8       30.08F
$$
MIZ001>003-009>011-084-152100-
WESTERN UPPER MICHIGAN

CITY           SKY/WX    TMP DP  RH WIND       PRES   REMARKS
IRON MOUNTAIN  PTSUNNY   57  41  55 NW9G20    30.08S
HOUGHTON       PTSUNNY   55  43  63 W16       30.09F
COPPER HARBOR    N/A     55  46  71 N17       30.07F
IRONWOOD       PTSUNNY   54  37  54 NW12G18   30.13S
$$

ABBREVIATIONS USED IN REMARKS
   TC - TEMPERATURE IN CELSIUS
  WCI - WIND CHILL INDEX
   HX - HEAT INDEX
  VSB - VISIBILITY




USA.gov is the U.S. government's official web portal to all federal, state and local government web resources and services.